[[{"header":{"parameterUnit":"m.s-1","parameterCategory":1,"la1":30.2992,"la2":30.254,"lo1":-89.0895,"lo2":-89.0443,"dy":0.0025,"dx":0.0025,"nx":19,"ny":19,"refTime":"2026-03-21T03:00:00:Z","depth":0,"parameterNumber":2,"parameterNumberName":"U-component_of_WINDS"},"data":[0,0,0,5.4935,5.494,5.5178,5.5179,5.5496,5.5499,0,0,0,0,0,0,0,0,0,0,0,5.4873,5.4876,5.4934,5.4941,5.5178,5.5179,5.5495,5.5499,0,0,0,0,0,0,0,0,0,0,0,5.4872,5.4875,5.4878,5.4941,5.5177,5.5179,5.5495,5.531,0,0,0,0,0,0,0,0,0,0,5.5077,5.503,5.4874,5.4878,5.4943,5.5177,5.5179,5.5301,5.5322,5.5394,0,5.5461,0,5.5485,5.5521,5.5522,0,0,0,5.4934,5.5013,5.5068,5.4879,5.4945,5.5177,5.5069,5.5313,5.5336,5.5422,5.5466,5.5477,5.549,5.5523,5.5525,5.5962,5.5964,0,0,5.4921,5.4921,5.5052,5.5084,5.5049,5.5061,5.5076,5.5327,5.5375,5.5467,5.5484,5.5496,5.5525,5.5528,5.596,5.5962,0,0,0,5.4888,5.4912,5.4961,5.5071,5.5113,5.5068,5.5086,5.5363,5.5379,5.5488,5.5499,5.5527,5.5531,5.5957,5.5961,5.6075,0,0,0,5.4879,5.4893,5.4956,5.4959,5.5109,5.5242,5.5117,5.5362,5.539,5.5498,5.5527,5.5534,5.5955,5.5959,5.6066,5.6128,0,0,0,5.4855,5.489,5.4927,5.4958,5.506,5.5237,5.5268,5.5368,5.5398,5.5522,5.5535,5.5953,5.5958,5.6058,5.6116,5.6241,0,0,0,5.4829,5.5027,5.4929,5.5155,5.5058,5.5307,5.5266,5.5452,5.5572,5.5529,5.5955,5.596,5.6056,5.6108,5.6233,5.6345,5.6392,0,0,5.5079,5.5057,5.519,5.5109,5.5375,5.5271,5.5553,5.5664,5.5677,5.5866,5.5877,5.6069,5.6115,5.6239,5.6661,5.6699,0,0,0,5.5269,5.5365,5.5435,5.5549,5.5638,5.5718,5.5785,5.5826,5.5986,5.5774,5.6149,5.6177,5.625,5.6303,5.6335,5.6396,5.5986,5.5985,5.5985,5.5623,5.5627,5.5846,5.5878,5.5989,5.6055,5.6145,5.6211,5.6184,5.6273,5.6328,5.6584,5.6647,5.667,5.6734,5.639,5.639,5.6391,5.6391,5.5988,5.6122,5.608,5.6276,5.6279,5.6445,5.6516,5.649,5.6644,5.6543,5.6608,5.6495,5.6712,5.6767,5.64,5.6398,5.6397,5.6396,5.6396,5.6218,5.6282,5.6328,5.6491,5.6616,5.6642,5.679,5.6789,5.6788,5.6852,5.6908,5.6906,5.6901,5.6879,5.688,5.6881,5.6882,5.6882,5.6883,5.6437,5.6485,5.661,5.6719,5.679,5.6884,5.6952,5.7022,5.7098,5.7085,5.7085,5.7047,5.6733,5.6652,5.6897,5.6894,5.6892,5.6891,5.689,5.6801,5.6718,5.6911,5.6983,5.7109,5.7232,5.7227,5.7369,5.7427,5.75,5.7449,5.7217,5.7195,5.717,5.7102,5.7449,5.7449,5.7449,5.7449,5.6992,5.6981,5.7176,5.729,5.7401,5.7416,5.7632,5.7686,5.7728,5.7764,5.7714,5.7626,5.76,5.7593,5.7558,5.7495,5.7934,5.7934,5.7935,5.7215,5.7213,5.7398,5.7438,5.7536,5.762,5.7823,5.7954,5.7985,5.7954,5.779,5.777,5.7628,5.7582,5.7545,5.7492,5.7377,0,0]},{"header":{"parameterUnit":"m.s-1","parameterCategory":1,"la1":30.2992,"la2":30.254,"lo1":-89.0895,"lo2":-89.0443,"dy":0.0025,"dx":0.0025,"nx":19,"ny":19,"refTime":"2026-03-21T03:00:00:Z","depth":0,"parameterNumber":3,"parameterNumberName":"V-component_of_WINDS"},"data":[0,0,0,3.838,3.8384,3.8594,3.8595,3.8858,3.8861,0,0,0,0,0,0,0,0,0,0,0,3.8316,3.8318,3.838,3.8385,3.8594,3.8595,3.8858,3.8861,0,0,0,0,0,0,0,0,0,0,0,3.8315,3.8317,3.8319,3.8386,3.8594,3.8595,3.8857,3.8701,0,0,0,0,0,0,0,0,0,0,3.8498,3.8437,3.8317,3.8319,3.8387,3.8594,3.8595,3.8693,3.8711,3.8761,0,3.8807,0,3.8838,3.8878,3.8879,0,0,0,3.8386,3.8423,3.8481,3.832,3.8389,3.8594,3.85,3.8703,3.8723,3.8784,3.8811,3.8821,3.8842,3.888,3.8881,3.917,3.9171,0,0,3.8375,3.8353,3.8467,3.8493,3.8462,3.8494,3.8507,3.8715,3.8742,3.8812,3.8827,3.8847,3.8881,3.8883,3.9169,3.917,0,0,0,3.8341,3.8344,3.8398,3.8483,3.8521,3.85,3.8515,3.8733,3.8752,3.883,3.885,3.8883,3.8886,3.9167,3.9169,3.9211,0,0,0,3.8334,3.8325,3.8393,3.8381,3.8517,3.863,3.8528,3.8738,3.8762,3.8848,3.8883,3.8889,3.9166,3.9168,3.9207,3.9234,0,0,0,3.8303,3.8321,3.8351,3.8379,3.8469,3.8627,3.8658,3.8743,3.8774,3.8879,3.8889,3.9165,3.9168,3.9203,3.9228,3.9303,0,0,0,3.8264,3.8385,3.8351,3.8494,3.8467,3.8651,3.8657,3.8795,3.889,3.8884,3.9166,3.9169,3.9202,3.9225,3.9299,3.9362,3.9387,0,0,3.8405,3.8401,3.8487,3.8463,3.8647,3.8621,3.8811,3.8919,3.895,3.9094,3.9102,3.9208,3.9228,3.9302,3.953,3.9549,0,0,0,3.8524,3.8586,3.8639,3.8729,3.8814,3.8888,3.897,3.9009,3.9133,3.902,3.9256,3.9269,3.9313,3.9344,3.9361,3.94,3.9183,3.9182,3.9182,3.8693,3.8724,3.8868,3.8924,3.901,3.9091,3.9164,3.9231,3.9238,3.9293,3.9337,3.9471,3.9507,3.9519,3.956,3.9372,3.9373,3.9373,3.9373,3.8902,3.8993,3.8998,3.9139,3.9171,3.929,3.9372,3.9372,3.9487,3.9441,3.9482,3.943,3.9539,3.9576,3.9376,3.9376,3.9375,3.9375,3.9375,3.9016,3.9065,3.911,3.9241,3.9338,3.939,3.9499,3.9524,3.9549,3.9589,3.9637,3.9636,3.9639,3.961,3.961,3.9611,3.9611,3.9611,3.9612,3.9116,3.9166,3.9255,3.9354,3.9413,3.9494,3.9575,3.9634,3.9706,3.9716,3.9716,3.9717,3.9544,3.95,3.9619,3.9618,3.9617,3.9616,3.9616,3.9317,3.9275,3.9412,3.9472,3.9589,3.9682,3.9712,3.9829,3.9882,3.9934,3.9926,3.9794,3.9792,3.978,3.9743,3.9919,3.9919,3.9919,3.9919,3.9413,3.9414,3.9559,3.9652,3.9746,3.9786,3.9939,4.0002,4.0061,4.0095,4.0073,4.0027,4.0012,4.002,4.0002,3.9968,4.0197,4.0197,4.0198,3.9538,3.9549,3.9675,3.9732,3.9824,3.9902,4.0046,4.0152,4.021,4.0209,4.0122,4.011,4.0036,4.001,4.0009,3.998,3.9919,0,0]}]]